CCA7910 ZSZS-ZBAA

Flight info

Callsign CCA7910
Flight time 2h 15m
Altitude 35100
Route K0859S1070 BK61X BK W67 VEXEX G204 JTN/K0857S1100 W116 PK G330 PIMOL A593 DALIM W157 BEKDO/K0835S1130 W157 AVBOX AVBOX6J
Aircraft A319/M-SDE3FGHIRWY/LB1

Departure

Time 2026-04-15 04:25
Airport Zhoushan Putuoshan International Airport (ZSZS)

Arrival

Time 2026-04-15 06:40
Airport Beijing Capital International Airport (ZBAA)
Time Latitude Longitude Altitude Speed Heading
2026-04-15 03:56 29.93652 122.35842 15 ft 0 kts 265°
2026-04-15 04:16 29.93653 122.35849 18 ft 4 kts 265°
2026-04-15 04:16 29.93655 122.35880 15 ft 4 kts 264°
2026-04-15 04:17 29.93659 122.35911 15 ft 4 kts 251°
2026-04-15 04:17 29.93671 122.35931 17 ft 2 kts 177°
2026-04-15 04:17 29.93672 122.35931 16 ft 0 kts 175°
2026-04-15 04:20 29.93671 122.35931 17 ft 1 kts 175°
2026-04-15 04:20 29.93654 122.35933 16 ft 5 kts 175°
2026-04-15 04:20 29.93596 122.35939 15 ft 11 kts 175°
2026-04-15 04:21 29.93503 122.35948 15 ft 15 kts 175°
2026-04-15 04:21 29.93452 122.36029 14 ft 13 kts 121°
2026-04-15 04:21 29.93374 122.36045 14 ft 12 kts 174°
2026-04-15 04:21 29.93274 122.36056 14 ft 18 kts 175°
2026-04-15 04:22 29.93132 122.36070 14 ft 22 kts 175°
2026-04-15 04:22 29.92974 122.36087 14 ft 24 kts 175°
2026-04-15 04:22 29.92864 122.36098 15 ft 24 kts 174°
2026-04-15 04:22 29.92690 122.36116 15 ft 26 kts 175°
2026-04-15 04:23 29.92509 122.36135 15 ft 27 kts 175°
2026-04-15 04:23 29.92337 122.36153 16 ft 19 kts 175°
2026-04-15 04:23 29.92309 122.36224 16 ft 0 kts 84°
2026-04-15 04:23 29.92310 122.36235 15 ft 2 kts 84°
2026-04-15 04:24 29.92313 122.36264 15 ft 5 kts 84°
2026-04-15 04:24 29.92326 122.36322 17 ft 10 kts 57°
2026-04-15 04:24 29.92395 122.36338 15 ft 11 kts 354°
2026-04-15 04:24 29.92529 122.36324 15 ft 46 kts 355°
2026-04-15 04:25 29.93134 122.36261 12 ft 125 kts 355°
2026-04-15 04:25 29.94150 122.36155 272 ft 152 kts 355°
2026-04-15 04:25 29.95194 122.36059 969 ft 150 kts 355°
2026-04-15 04:25 29.96234 122.35920 1559 ft 151 kts 353°
2026-04-15 04:26 29.97286 122.35760 2103 ft 155 kts 349°
2026-04-15 04:26 29.98221 122.35143 2591 ft 160 kts 311°
2026-04-15 04:26 29.98680 122.33958 3058 ft 170 kts 278°
2026-04-15 04:26 29.98510 122.32531 3355 ft 191 kts 258°
2026-04-15 04:27 29.98170 122.30952 3672 ft 210 kts 258°
2026-04-15 04:27 29.97819 122.29305 4423 ft 210 kts 258°
2026-04-15 04:27 29.97472 122.27662 5201 ft 210 kts 258°
2026-04-15 04:27 29.97126 122.26029 5997 ft 209 kts 258°
2026-04-15 04:28 29.96784 122.24403 6723 ft 208 kts 257°
2026-04-15 04:28 29.96499 122.22731 7188 ft 222 kts 263°
2026-04-15 04:28 29.96328 122.20862 7456 ft 246 kts 265°
2026-04-15 04:28 29.96181 122.18841 7940 ft 258 kts 265°
2026-04-15 04:29 29.96039 122.16759 8650 ft 262 kts 265°
2026-04-15 04:29 29.95896 122.14648 9386 ft 265 kts 265°
2026-04-15 04:29 29.95747 122.12516 10115 ft 269 kts 265°
2026-04-15 04:29 29.95588 122.10302 10404 ft 288 kts 265°
2026-04-15 04:30 29.95412 122.07914 10547 ft 310 kts 265°
2026-04-15 04:30 29.95220 122.05352 10672 ft 331 kts 265°
2026-04-15 04:30 29.95016 122.02638 10803 ft 348 kts 265°
2026-04-15 04:30 29.94804 121.99815 11170 ft 357 kts 265°
2026-04-15 04:31 29.94588 121.96954 11713 ft 360 kts 265°
2026-04-15 04:31 29.94369 121.94068 12267 ft 362 kts 265°
2026-04-15 04:31 29.94147 121.91174 12848 ft 363 kts 265°
2026-04-15 04:31 29.93923 121.88269 13429 ft 365 kts 265°
2026-04-15 04:32 29.93698 121.85342 13949 ft 367 kts 265°
2026-04-15 04:32 29.93473 121.82409 14410 ft 369 kts 265°
2026-04-15 04:32 29.93249 121.79455 14864 ft 371 kts 265°
2026-04-15 04:32 29.93022 121.76481 15318 ft 373 kts 265°
2026-04-15 04:33 29.92793 121.73492 15769 ft 376 kts 265°
2026-04-15 04:33 29.92558 121.70483 16178 ft 378 kts 265°
2026-04-15 04:33 29.92321 121.67457 16601 ft 380 kts 265°
2026-04-15 04:33 29.92083 121.64414 17002 ft 382 kts 265°
2026-04-15 04:34 29.91844 121.61350 17387 ft 384 kts 265°
2026-04-15 04:34 29.91602 121.58276 17759 ft 386 kts 265°
2026-04-15 04:34 29.91358 121.55186 18128 ft 389 kts 265°
2026-04-15 04:34 29.91108 121.52074 18452 ft 391 kts 265°
2026-04-15 04:35 29.90856 121.48949 18747 ft 392 kts 265°
2026-04-15 04:35 29.90604 121.45814 19047 ft 394 kts 265°
2026-04-15 04:35 29.90352 121.42665 19342 ft 395 kts 265°
2026-04-15 04:35 29.90100 121.39506 19633 ft 397 kts 265°
2026-04-15 04:36 29.89857 121.36327 19932 ft 399 kts 266°
2026-04-15 04:36 29.89949 121.33134 20230 ft 401 kts 276°
2026-04-15 04:36 29.90552 121.29983 20544 ft 404 kts 285°
2026-04-15 04:36 29.91388 121.26892 20822 ft 405 kts 284°
2026-04-15 04:37 29.92223 121.23780 21103 ft 407 kts 285°
2026-04-15 04:37 29.93053 121.20655 21368 ft 409 kts 284°
2026-04-15 04:37 29.93884 121.17516 21656 ft 410 kts 285°
2026-04-15 04:37 29.95081 121.14507 21916 ft 418 kts 300°
2026-04-15 04:38 29.97045 121.11997 22187 ft 430 kts 316°
2026-04-15 04:38 29.99673 121.10264 22422 ft 445 kts 334°
2026-04-15 04:38 30.02754 121.09575 22663 ft 462 kts 353°
2026-04-15 04:38 30.05977 121.10118 22902 ft 479 kts 13°
2026-04-15 04:39 30.09047 121.11742 23115 ft 488 kts 22°
2026-04-15 04:39 30.12060 121.13575 23329 ft 491 kts 23°
2026-04-15 04:39 30.15063 121.15464 23541 ft 493 kts 24°
2026-04-15 04:39 30.18069 121.17382 23719 ft 494 kts 24°
2026-04-15 04:40 30.21087 121.19306 23885 ft 496 kts 24°
2026-04-15 04:40 30.24180 121.21047 24045 ft 492 kts 16°
2026-04-15 04:40 30.27424 121.22218 24204 ft 485 kts
2026-04-15 04:40 30.30728 121.22832 24368 ft 480 kts 359°
2026-04-15 04:41 30.34058 121.23245 24531 ft 481 kts 359°
2026-04-15 04:41 30.37396 121.23667 24698 ft 483 kts 360°
2026-04-15 04:41 30.40734 121.24097 24866 ft 484 kts 360°
2026-04-15 04:41 30.44081 121.24532 25026 ft 485 kts 359°
2026-04-15 04:42 30.47443 121.24977 25186 ft 487 kts 360°
2026-04-15 04:42 30.50809 121.25440 25354 ft 488 kts 360°
2026-04-15 04:42 30.54184 121.25921 25516 ft 489 kts
2026-04-15 04:42 30.57564 121.26408 25670 ft 490 kts 360°
2026-04-15 04:43 30.60961 121.26897 25833 ft 492 kts 360°
2026-04-15 04:43 30.64354 121.27382 26007 ft 492 kts 359°
2026-04-15 04:43 30.67755 121.27865 26249 ft 491 kts 359°
2026-04-15 04:43 30.71142 121.28344 26487 ft 491 kts 359°
2026-04-15 04:44 30.74530 121.28823 26727 ft 490 kts 359°
2026-04-15 04:44 30.77916 121.29300 26969 ft 490 kts 359°
2026-04-15 04:44 30.81300 121.29774 27221 ft 489 kts 359°
2026-04-15 04:44 30.84674 121.30247 27475 ft 489 kts 358°
2026-04-15 04:45 30.88049 121.30720 27731 ft 489 kts 358°
2026-04-15 04:45 30.91427 121.31195 28005 ft 488 kts 358°
2026-04-15 04:45 30.94800 121.31675 28279 ft 488 kts 358°
2026-04-15 04:45 30.98172 121.32156 28550 ft 487 kts 358°
2026-04-15 04:46 31.01532 121.32634 28823 ft 487 kts 357°
2026-04-15 04:46 31.08257 121.33584 29395 ft 486 kts 357°
2026-04-15 04:46 31.11608 121.34018 29687 ft 481 kts 353°
2026-04-15 04:47 31.14910 121.33994 29972 ft 470 kts 346°
2026-04-15 04:47 31.18170 121.33752 30240 ft 469 kts 346°
2026-04-15 04:47 31.21432 121.33501 30489 ft 467 kts 344°
2026-04-15 04:47 31.24579 121.32881 30722 ft 452 kts 334°
2026-04-15 04:48 31.27484 121.31669 30956 ft 436 kts 324°
2026-04-15 04:48 31.30083 121.29948 31198 ft 423 kts 315°
2026-04-15 04:48 31.32333 121.27823 31454 ft 410 kts 307°
2026-04-15 04:48 31.34273 121.25420 31718 ft 405 kts 303°
2026-04-15 04:49 31.36166 121.22994 31992 ft 404 kts 303°
2026-04-15 04:49 31.38061 121.20570 32275 ft 403 kts 303°
2026-04-15 04:49 31.39947 121.18158 32562 ft 401 kts 303°
2026-04-15 04:49 31.41830 121.15747 32844 ft 400 kts 302°
2026-04-15 04:50 31.43731 121.13368 33124 ft 404 kts 306°
2026-04-15 04:50 31.45974 121.11304 33405 ft 419 kts 316°
2026-04-15 04:50 31.48613 121.09721 33690 ft 430 kts 323°
2026-04-15 04:50 31.51337 121.08278 33957 ft 430 kts 323°
2026-04-15 04:51 31.54058 121.06830 34193 ft 429 kts 323°
2026-04-15 04:51 31.56760 121.05387 34399 ft 428 kts 322°
2026-04-15 04:51 31.59470 121.03937 34593 ft 428 kts 322°
2026-04-15 04:51 31.62179 121.02484 34770 ft 428 kts 322°
2026-04-15 04:52 31.64888 121.01029 34941 ft 428 kts 322°
2026-04-15 04:52 31.67597 120.99576 35085 ft 429 kts 322°
2026-04-15 04:52 31.73051 120.96643 35130 ft 433 kts 322°
2026-04-15 04:53 31.78538 120.93702 35130 ft 433 kts 322°
2026-04-15 04:53 31.84030 120.90784 35123 ft 434 kts 322°
2026-04-15 04:54 31.89530 120.87855 35121 ft 434 kts 322°
2026-04-15 04:54 31.95028 120.84931 35124 ft 434 kts 322°
2026-04-15 04:55 32.00522 120.81994 35133 ft 433 kts 322°
2026-04-15 04:55 32.06011 120.79052 35138 ft 433 kts 322°
2026-04-15 04:56 32.11408 120.75981 35141 ft 420 kts 314°
2026-04-15 04:56 32.13624 120.73882 35143 ft 400 kts 303°
2026-04-15 04:56 32.15343 120.71382 35139 ft 385 kts 292°
2026-04-15 04:57 32.16549 120.68630 35138 ft 373 kts 283°
2026-04-15 04:57 32.17260 120.65726 35133 ft 365 kts 275°
2026-04-15 04:57 32.17794 120.59816 35125 ft 362 kts 271°
2026-04-15 04:58 32.18290 120.53894 35121 ft 363 kts 271°
2026-04-15 04:58 32.18791 120.47969 35114 ft 363 kts 271°
2026-04-15 04:59 32.19283 120.42039 35117 ft 363 kts 271°
2026-04-15 04:59 32.19769 120.36095 35121 ft 364 kts 271°
2026-04-15 05:00 32.20254 120.30153 35123 ft 364 kts 271°
2026-04-15 05:00 32.20739 120.24207 35122 ft 364 kts 271°
2026-04-15 05:01 32.21147 120.19221 35124 ft 364 kts 271°
2026-04-15 05:01 32.21626 120.13270 35123 ft 364 kts 271°
2026-04-15 05:02 32.22110 120.07321 35126 ft 364 kts 271°
2026-04-15 05:02 32.22593 120.01380 35123 ft 363 kts 271°
2026-04-15 05:03 32.23064 119.95451 35124 ft 363 kts 271°
2026-04-15 05:03 32.23537 119.89517 35121 ft 363 kts 271°
2026-04-15 05:04 32.24005 119.83584 35125 ft 363 kts 271°
2026-04-15 05:04 32.25082 119.77725 35115 ft 377 kts 287°
2026-04-15 05:05 32.26503 119.75052 35122 ft 393 kts 299°
2026-04-15 05:05 32.28536 119.72779 35127 ft 413 kts 311°
2026-04-15 05:05 32.33218 119.68781 35129 ft 416 kts 312°
2026-04-15 05:06 32.37927 119.64796 35126 ft 416 kts 312°
2026-04-15 05:06 32.42626 119.60789 35130 ft 416 kts 311°
2026-04-15 05:07 32.47321 119.56765 35125 ft 416 kts 311°
2026-04-15 05:07 32.52003 119.52723 35129 ft 417 kts 311°
2026-04-15 05:08 32.56690 119.48672 35129 ft 417 kts 311°
2026-04-15 05:08 32.61374 119.44610 35131 ft 417 kts 312°
2026-04-15 05:09 32.66060 119.40551 35135 ft 417 kts 312°
2026-04-15 05:09 32.70746 119.36478 35135 ft 418 kts 312°
2026-04-15 05:10 32.75437 119.32403 35135 ft 418 kts 312°
2026-04-15 05:10 32.80134 119.28325 35136 ft 418 kts 313°
2026-04-15 05:11 32.84831 119.24238 35129 ft 419 kts 313°
2026-04-15 05:11 32.89527 119.20137 35129 ft 419 kts 313°
2026-04-15 05:12 32.94228 119.16025 35134 ft 420 kts 313°
2026-04-15 05:12 32.98961 119.11936 35134 ft 421 kts 314°
2026-04-15 05:13 33.03712 119.07857 35132 ft 421 kts 314°
2026-04-15 05:13 33.08461 119.03771 35132 ft 421 kts 314°
2026-04-15 05:14 33.13203 118.99674 35129 ft 421 kts 314°
2026-04-15 05:14 33.17952 118.95559 35120 ft 422 kts 314°
2026-04-15 05:15 33.22701 118.91433 35127 ft 422 kts 314°
2026-04-15 05:15 33.27449 118.87294 35122 ft 422 kts 314°
2026-04-15 05:16 33.32198 118.83148 35124 ft 423 kts 314°
2026-04-15 05:16 33.36967 118.79017 35128 ft 423 kts 314°
2026-04-15 05:17 33.41740 118.74885 35128 ft 423 kts 314°
2026-04-15 05:17 33.46500 118.70749 35126 ft 423 kts 314°
2026-04-15 05:18 33.51260 118.66614 35127 ft 423 kts 314°
2026-04-15 05:18 33.56035 118.62478 35130 ft 423 kts 315°
2026-04-15 05:19 33.60809 118.58343 35133 ft 423 kts 314°
2026-04-15 05:19 33.65578 118.54196 35130 ft 423 kts 315°
2026-04-15 05:20 33.70338 118.50047 35130 ft 423 kts 315°
2026-04-15 05:20 33.75100 118.45892 35130 ft 423 kts 315°
2026-04-15 05:21 33.79857 118.41737 35131 ft 423 kts 315°
2026-04-15 05:21 33.84619 118.37579 35125 ft 423 kts 315°
2026-04-15 05:22 33.89379 118.33413 35127 ft 423 kts 315°
2026-04-15 05:22 33.94129 118.29242 35129 ft 423 kts 315°
2026-04-15 05:23 33.98880 118.25066 35127 ft 423 kts 315°
2026-04-15 05:23 34.03664 118.20909 35127 ft 424 kts 315°
2026-04-15 05:24 34.08442 118.16757 35128 ft 424 kts 315°
2026-04-15 05:24 34.13224 118.12598 35126 ft 424 kts 315°
2026-04-15 05:25 34.18002 118.08427 35126 ft 424 kts 315°
2026-04-15 05:25 34.22779 118.04256 35126 ft 424 kts 315°
2026-04-15 05:26 34.27681 118.00254 35119 ft 434 kts 324°
2026-04-15 05:26 34.30510 117.98850 35113 ft 446 kts 333°
2026-04-15 05:26 34.33496 117.97787 35113 ft 448 kts 334°
2026-04-15 05:27 34.39484 117.95674 35110 ft 448 kts 334°
2026-04-15 05:27 34.45466 117.93544 35107 ft 448 kts 334°
2026-04-15 05:28 34.51450 117.91409 35111 ft 449 kts 334°
2026-04-15 05:28 34.57435 117.89266 35112 ft 448 kts 334°
2026-04-15 05:29 34.63423 117.87122 35110 ft 449 kts 334°
2026-04-15 05:29 34.69410 117.84963 35112 ft 449 kts 334°
2026-04-15 05:30 34.75399 117.82803 35111 ft 449 kts 334°
2026-04-15 05:30 34.81383 117.80646 35109 ft 449 kts 334°
2026-04-15 05:31 34.87368 117.78471 35108 ft 449 kts 334°
2026-04-15 05:31 34.93350 117.76275 35117 ft 449 kts 333°
2026-04-15 05:32 34.99331 117.74081 35117 ft 449 kts 333°
2026-04-15 05:32 35.05310 117.71889 35116 ft 449 kts 333°
2026-04-15 05:33 35.11291 117.69691 35118 ft 449 kts 333°
2026-04-15 05:33 35.17277 117.67498 35120 ft 449 kts 333°
2026-04-15 05:34 35.23262 117.65305 35110 ft 449 kts 333°
2026-04-15 05:34 35.29249 117.63104 35108 ft 449 kts 333°
2026-04-15 05:35 35.35225 117.60896 35126 ft 448 kts 333°
2026-04-15 05:35 35.41185 117.58696 35124 ft 446 kts 333°
2026-04-15 05:36 35.47114 117.56507 35125 ft 444 kts 333°
2026-04-15 05:36 35.53033 117.54323 35123 ft 443 kts 333°
2026-04-15 05:37 35.58933 117.52140 35123 ft 442 kts 333°
2026-04-15 05:37 35.64820 117.49945 35121 ft 442 kts 333°
2026-04-15 05:38 35.70692 117.47753 35120 ft 441 kts 333°
2026-04-15 05:38 35.76563 117.45566 35121 ft 440 kts 333°
2026-04-15 05:39 35.82422 117.43384 35120 ft 439 kts 333°
2026-04-15 05:39 35.88263 117.41200 35120 ft 439 kts 332°
2026-04-15 05:40 35.94099 117.39014 35120 ft 438 kts 333°
2026-04-15 05:40 35.98950 117.37200 35123 ft 437 kts 333°
2026-04-15 05:41 36.04776 117.35034 35127 ft 437 kts 333°
2026-04-15 05:41 36.10605 117.32884 35121 ft 437 kts 333°
2026-04-15 05:42 36.16419 117.30742 35123 ft 436 kts 333°
2026-04-15 05:42 36.22226 117.28589 35120 ft 435 kts 333°
2026-04-15 05:43 36.28055 117.26420 35121 ft 435 kts 333°
2026-04-15 05:43 36.33844 117.24264 35118 ft 434 kts 332°
2026-04-15 05:44 36.39625 117.22108 35113 ft 433 kts 333°
2026-04-15 05:44 36.45205 117.19545 35112 ft 425 kts 327°
2026-04-15 05:45 36.50650 117.16710 35112 ft 424 kts 327°
2026-04-15 05:45 36.56085 117.13873 35112 ft 423 kts 327°
2026-04-15 05:46 36.61511 117.11043 35113 ft 423 kts 327°
2026-04-15 05:46 36.66934 117.08218 35112 ft 422 kts 327°
2026-04-15 05:47 36.72341 117.05396 35099 ft 421 kts 326°
2026-04-15 05:47 36.77750 117.02569 35104 ft 421 kts 326°
2026-04-15 05:48 36.83149 116.99737 35104 ft 421 kts 326°
2026-04-15 05:48 36.88544 116.96906 35108 ft 421 kts 326°
2026-04-15 05:49 36.93937 116.94064 35108 ft 420 kts 326°
2026-04-15 05:49 36.99324 116.91228 35105 ft 420 kts 326°
2026-04-15 05:50 37.04712 116.88393 35104 ft 420 kts 326°
2026-04-15 05:51 37.12790 116.84122 35101 ft 420 kts 326°
2026-04-15 05:51 37.18176 116.81272 35097 ft 420 kts 326°
2026-04-15 05:52 37.23670 116.78647 35097 ft 428 kts 332°
2026-04-15 05:52 37.29382 116.76494 35097 ft 429 kts 332°
2026-04-15 05:53 37.35095 116.74348 35103 ft 429 kts 333°
2026-04-15 05:53 37.40809 116.72195 35102 ft 428 kts 332°
2026-04-15 05:54 37.46517 116.70028 35103 ft 428 kts 332°
2026-04-15 05:54 37.52219 116.67863 35101 ft 428 kts 332°
2026-04-15 05:55 37.57911 116.65699 35102 ft 427 kts 332°
2026-04-15 05:55 37.63607 116.63535 35102 ft 427 kts 333°
2026-04-15 05:56 37.69297 116.61367 35104 ft 427 kts 332°
2026-04-15 05:56 37.74983 116.59186 35102 ft 427 kts 332°
2026-04-15 05:57 37.80672 116.57002 35101 ft 427 kts 333°
2026-04-15 05:57 37.86361 116.54831 35102 ft 427 kts 333°
2026-04-15 05:58 37.92051 116.52656 35102 ft 427 kts 333°
2026-04-15 05:58 37.97590 116.50151 35082 ft 414 kts 323°
2026-04-15 05:58 38.00023 116.48263 34624 ft 406 kts 315°
2026-04-15 05:59 38.02298 116.46167 34106 ft 404 kts 315°
2026-04-15 05:59 38.04569 116.44067 33534 ft 404 kts 316°
2026-04-15 05:59 38.06841 116.41963 32941 ft 405 kts 316°
2026-04-15 05:59 38.09125 116.39853 32365 ft 407 kts 317°
2026-04-15 06:00 38.11426 116.37740 31806 ft 409 kts 317°
2026-04-15 06:00 38.13745 116.35615 31244 ft 411 kts 318°
2026-04-15 06:00 38.16071 116.33480 30701 ft 414 kts 318°
2026-04-15 06:00 38.18408 116.31335 30176 ft 416 kts 319°
2026-04-15 06:01 38.20761 116.29187 29574 ft 419 kts 320°
2026-04-15 06:01 38.23348 116.27398 28956 ft 430 kts 332°
2026-04-15 06:01 38.26252 116.26313 28357 ft 442 kts 343°
2026-04-15 06:01 38.29362 116.26028 27768 ft 456 kts 356°
2026-04-15 06:02 38.32535 116.26647 27190 ft 469 kts
2026-04-15 06:02 38.35700 116.27743 26626 ft 472 kts
2026-04-15 06:02 38.38874 116.28847 26074 ft 474 kts
2026-04-15 06:02 38.42061 116.29951 25531 ft 475 kts
2026-04-15 06:03 38.45253 116.31055 24999 ft 476 kts
2026-04-15 06:03 38.48457 116.32160 24455 ft 477 kts
2026-04-15 06:03 38.51661 116.33270 23898 ft 476 kts
2026-04-15 06:03 38.54844 116.34374 23312 ft 472 kts 10°
2026-04-15 06:04 38.58003 116.35469 22665 ft 469 kts 10°
2026-04-15 06:04 38.61137 116.36553 22029 ft 465 kts 10°
2026-04-15 06:04 38.64246 116.37629 21405 ft 461 kts 11°
2026-04-15 06:04 38.67337 116.38647 20795 ft 457 kts
2026-04-15 06:05 38.70419 116.39556 20200 ft 453 kts
2026-04-15 06:05 38.73485 116.40392 19673 ft 450 kts
2026-04-15 06:05 38.76545 116.41202 19241 ft 448 kts
2026-04-15 06:05 38.79585 116.42009 18812 ft 446 kts
2026-04-15 06:06 38.82615 116.42830 18396 ft 444 kts
2026-04-15 06:06 38.85629 116.43665 17932 ft 442 kts
2026-04-15 06:06 38.88627 116.44509 17456 ft 439 kts 10°
2026-04-15 06:06 38.91598 116.45361 16988 ft 437 kts 10°
2026-04-15 06:07 38.94553 116.46215 16511 ft 434 kts 10°
2026-04-15 06:07 38.97495 116.47063 16061 ft 431 kts 11°
2026-04-15 06:07 39.00416 116.47902 15663 ft 429 kts 11°
2026-04-15 06:07 39.03325 116.48732 15294 ft 427 kts 11°
2026-04-15 06:08 39.06221 116.49552 14923 ft 425 kts 11°
2026-04-15 06:08 39.09106 116.50350 14561 ft 423 kts
2026-04-15 06:08 39.12019 116.50703 14204 ft 419 kts 359°
2026-04-15 06:08 39.14911 116.50442 13844 ft 416 kts 351°
2026-04-15 06:09 39.17774 116.49984 13455 ft 411 kts 351°
2026-04-15 06:09 39.20537 116.49548 13043 ft 389 kts 352°
2026-04-15 06:09 39.23146 116.49145 12658 ft 367 kts 352°
2026-04-15 06:09 39.25621 116.48763 12275 ft 349 kts 352°
2026-04-15 06:10 39.27977 116.48398 11892 ft 334 kts 352°
2026-04-15 06:10 39.30230 116.48052 11610 ft 318 kts 352°
2026-04-15 06:10 39.32374 116.47721 11359 ft 305 kts 352°
2026-04-15 06:10 39.34463 116.47397 11109 ft 301 kts 352°
2026-04-15 06:11 39.36540 116.47072 10869 ft 301 kts 352°
2026-04-15 06:11 39.38612 116.46747 10629 ft 299 kts 352°
2026-04-15 06:11 39.40673 116.46420 10388 ft 298 kts 352°
2026-04-15 06:11 39.42734 116.46092 10147 ft 298 kts 352°
2026-04-15 06:12 39.44789 116.45770 9910 ft 297 kts 353°
2026-04-15 06:12 39.46848 116.45843 9648 ft 297 kts 10°
2026-04-15 06:12 39.48799 116.46695 9388 ft 297 kts 27°
2026-04-15 06:12 39.50477 116.48231 9128 ft 296 kts 42°
2026-04-15 06:13 39.52024 116.49996 8872 ft 296 kts 41°
2026-04-15 06:13 39.53570 116.51758 8618 ft 296 kts 41°
2026-04-15 06:13 39.55115 116.53518 8365 ft 296 kts 41°
2026-04-15 06:13 39.56660 116.55277 8113 ft 296 kts 41°
2026-04-15 06:14 39.58207 116.57039 7863 ft 296 kts 41°
2026-04-15 06:14 39.59754 116.58805 7615 ft 296 kts 41°
2026-04-15 06:14 39.61297 116.60568 7369 ft 296 kts 41°
2026-04-15 06:14 39.62840 116.62332 7135 ft 296 kts 41°
2026-04-15 06:15 39.64376 116.64090 6892 ft 292 kts 41°
2026-04-15 06:15 39.65913 116.65778 6652 ft 287 kts 33°
2026-04-15 06:15 39.67674 116.66916 6411 ft 280 kts 15°
2026-04-15 06:15 39.69560 116.67354 6156 ft 272 kts 359°
2026-04-15 06:16 39.71414 116.67214 5966 ft 262 kts 348°
2026-04-15 06:16 39.73180 116.66903 5903 ft 249 kts 348°
2026-04-15 06:16 39.74843 116.66628 5905 ft 233 kts 348°
2026-04-15 06:16 39.76411 116.66382 5797 ft 222 kts 348°
2026-04-15 06:17 39.77923 116.66146 5529 ft 217 kts 347°
2026-04-15 06:17 39.79394 116.65917 5245 ft 208 kts 347°
2026-04-15 06:17 39.80788 116.65702 4992 ft 192 kts 346°
2026-04-15 06:17 39.82048 116.65508 4740 ft 173 kts 345°
2026-04-15 06:18 39.83195 116.65329 4519 ft 160 kts 345°
2026-04-15 06:18 39.83914 116.65216 4370 ft 156 kts 344°
2026-04-15 06:18 39.84988 116.65045 4178 ft 155 kts 345°
2026-04-15 06:18 39.86058 116.64877 3975 ft 155 kts 345°
2026-04-15 06:19 39.87130 116.64708 3778 ft 155 kts 345°
2026-04-15 06:19 39.88201 116.64541 3569 ft 155 kts 345°
2026-04-15 06:19 39.89268 116.64374 3366 ft 154 kts 346°
2026-04-15 06:19 39.90332 116.64207 3167 ft 154 kts 346°
2026-04-15 06:20 39.91388 116.64042 2959 ft 152 kts 347°
2026-04-15 06:20 39.92435 116.63878 2763 ft 151 kts 348°
2026-04-15 06:20 39.93474 116.63716 2559 ft 150 kts 350°
2026-04-15 06:20 39.94499 116.63555 2364 ft 147 kts 351°
2026-04-15 06:21 39.95511 116.63396 2168 ft 147 kts 352°
2026-04-15 06:21 39.96536 116.63235 1970 ft 149 kts 352°
2026-04-15 06:21 39.97564 116.63074 1770 ft 149 kts 353°
2026-04-15 06:21 39.98671 116.62897 2054 ft 170 kts 352°
2026-04-15 06:22 39.99863 116.62717 2770 ft 174 kts 351°
2026-04-15 06:22 40.01092 116.62591 3508 ft 181 kts 352°
2026-04-15 06:22 40.02375 116.62542 4219 ft 188 kts 352°
2026-04-15 06:22 40.03690 116.62521 4822 ft 191 kts 353°
2026-04-15 06:23 40.05016 116.62524 5391 ft 191 kts 353°
2026-04-15 06:23 40.06384 116.62513 5775 ft 205 kts 353°
2026-04-15 06:23 40.07900 116.62468 5882 ft 228 kts 353°
2026-04-15 06:23 40.09517 116.62394 5893 ft 238 kts 353°
2026-04-15 06:24 40.11185 116.62314 5890 ft 242 kts 354°
2026-04-15 06:24 40.12854 116.62708 5901 ft 249 kts 22°
2026-04-15 06:24 40.14218 116.64093 5908 ft 252 kts 54°
2026-04-15 06:24 40.14907 116.66157 5912 ft 248 kts 85°
2026-04-15 06:25 40.14782 116.68347 5907 ft 240 kts 115°
2026-04-15 06:25 40.13949 116.70156 5910 ft 229 kts 142°
2026-04-15 06:25 40.12652 116.71255 5907 ft 219 kts 167°
2026-04-15 06:25 40.11186 116.71712 5907 ft 217 kts 174°
2026-04-15 06:26 40.09710 116.72122 5909 ft 217 kts 174°
2026-04-15 06:26 40.08231 116.72537 5909 ft 217 kts 173°
2026-04-15 06:26 40.06755 116.72954 5908 ft 217 kts 173°
2026-04-15 06:26 40.05275 116.73370 5908 ft 218 kts 173°
2026-04-15 06:27 40.03831 116.74014 5903 ft 224 kts 154°
2026-04-15 06:27 40.02736 116.75502 5918 ft 237 kts 121°
2026-04-15 06:27 40.02486 116.77643 5909 ft 247 kts 81°
2026-04-15 06:27 40.03294 116.79600 5912 ft 249 kts 40°
2026-04-15 06:28 40.04817 116.80537 5911 ft 241 kts
2026-04-15 06:28 40.06441 116.80270 5909 ft 235 kts 340°
2026-04-15 06:28 40.08066 116.79893 5911 ft 239 kts 347°
2026-04-15 06:28 40.09722 116.79653 5911 ft 240 kts 349°
2026-04-15 06:29 40.11386 116.79446 5914 ft 240 kts 349°
2026-04-15 06:29 40.13014 116.79051 5912 ft 235 kts 335°
2026-04-15 06:29 40.14567 116.78377 5913 ft 235 kts 336°
2026-04-15 06:29 40.16122 116.77717 5911 ft 235 kts 336°
2026-04-15 06:30 40.17674 116.77061 5911 ft 235 kts 336°
2026-04-15 06:30 40.19232 116.76400 5815 ft 237 kts 336°
2026-04-15 06:30 40.20803 116.75730 5543 ft 237 kts 336°
2026-04-15 06:30 40.22370 116.75061 5344 ft 237 kts 336°
2026-04-15 06:31 40.23936 116.74389 5147 ft 237 kts 335°
2026-04-15 06:31 40.25501 116.73716 4949 ft 237 kts 335°
2026-04-15 06:31 40.27072 116.73039 4756 ft 237 kts 335°
2026-04-15 06:31 40.28636 116.72364 4555 ft 237 kts 335°
2026-04-15 06:32 40.30177 116.71647 4348 ft 231 kts 327°
2026-04-15 06:32 40.31376 116.70399 4153 ft 214 kts 301°
2026-04-15 06:32 40.32011 116.68728 3970 ft 199 kts 278°
2026-04-15 06:32 40.32080 116.67021 3902 ft 180 kts 258°
2026-04-15 06:33 40.31893 116.65423 3876 ft 176 kts 257°
2026-04-15 06:33 40.31712 116.63843 3886 ft 176 kts 257°
2026-04-15 06:33 40.31533 116.62258 3880 ft 176 kts 257°
2026-04-15 06:33 40.31288 116.60690 3874 ft 175 kts 246°
2026-04-15 06:34 40.30640 116.59362 3880 ft 174 kts 225°
2026-04-15 06:34 40.29634 116.58486 3881 ft 176 kts 203°
2026-04-15 06:34 40.28476 116.58218 3875 ft 162 kts 182°
2026-04-15 06:34 40.27422 116.58371 3818 ft 142 kts 178°
2026-04-15 06:35 40.26488 116.58518 3678 ft 132 kts 178°
2026-04-15 06:35 40.25584 116.58660 3514 ft 130 kts 177°
2026-04-15 06:35 40.24688 116.58800 3349 ft 129 kts 176°
2026-04-15 06:35 40.23796 116.58941 3172 ft 129 kts 175°
2026-04-15 06:36 40.22906 116.59081 2986 ft 129 kts 175°
2026-04-15 06:36 40.22017 116.59222 2805 ft 128 kts 175°
2026-04-15 06:36 40.21129 116.59362 2621 ft 129 kts 174°
2026-04-15 06:36 40.20233 116.59504 2442 ft 129 kts 173°
2026-04-15 06:37 40.19345 116.59644 2254 ft 128 kts 172°
2026-04-15 06:37 40.18457 116.59784 2067 ft 129 kts 173°
2026-04-15 06:37 40.17561 116.59926 1891 ft 129 kts 173°
2026-04-15 06:37 40.16671 116.60066 1705 ft 128 kts 172°
2026-04-15 06:38 40.15789 116.60205 1510 ft 128 kts 171°
2026-04-15 06:38 40.14901 116.60345 1332 ft 129 kts 172°
2026-04-15 06:38 40.14015 116.60485 1141 ft 127 kts 172°
2026-04-15 06:38 40.13133 116.60623 966 ft 127 kts 172°
2026-04-15 06:39 40.12250 116.60764 743 ft 128 kts 172°
2026-04-15 06:39 40.11363 116.60905 570 ft 129 kts 171°
2026-04-15 06:39 40.10467 116.61047 404 ft 130 kts 172°
2026-04-15 06:39 40.09571 116.61188 206 ft 128 kts 173°
2026-04-15 06:40 40.08712 116.61326 123 ft 113 kts 173°
2026-04-15 06:40 40.08096 116.61423 123 ft 64 kts 173°
2026-04-15 06:40 40.07792 116.61471 120 ft 35 kts 173°
2026-04-15 06:40 40.07554 116.61509 120 ft 29 kts 173°
2026-04-15 06:41 40.07383 116.61518 123 ft 25 kts 186°
2026-04-15 06:41 40.07222 116.61456 122 ft 19 kts 202°
2026-04-15 06:41 40.07135 116.61408 122 ft 13 kts 203°
2026-04-15 06:41 40.07041 116.61361 121 ft 15 kts 193°
2026-04-15 06:42 40.06932 116.61369 121 ft 17 kts 173°
2026-04-15 06:42 40.06810 116.61388 122 ft 19 kts 174°
2026-04-15 06:42 40.06674 116.61409 122 ft 21 kts 173°
2026-04-15 06:42 40.06526 116.61432 122 ft 23 kts 173°
2026-04-15 06:43 40.06387 116.61447 124 ft 11 kts 205°
2026-04-15 06:43 40.06371 116.61348 124 ft 13 kts 265°
2026-04-15 06:43 40.06357 116.61225 124 ft 15 kts 263°
2026-04-15 06:43 40.06345 116.61096 123 ft 11 kts 258°
2026-04-15 06:44 40.06277 116.61079 122 ft 12 kts 171°
2026-04-15 06:44 40.06186 116.61095 122 ft 14 kts 175°
2026-04-15 06:44 40.06079 116.61111 120 ft 17 kts 173°
2026-04-15 06:44 40.05956 116.61130 122 ft 19 kts 173°
2026-04-15 06:45 40.05819 116.61151 122 ft 21 kts 173°
2026-04-15 06:45 40.05726 116.61142 123 ft 11 kts 241°
2026-04-15 06:45 40.05715 116.61054 122 ft 11 kts 263°
2026-04-15 06:45 40.05714 116.61036 122 ft 0 kts 263°